Time,TemperatureF,DewpointF,PressureIn,WindDirection,WindDirectionDegrees,WindSpeedMPH,WindSpeedGustMPH,Humidity,HourlyPrecipIn,Conditions,Clouds,dailyrainin,SolarRadiationWatts/m^2,SoftwareType,DateUTC
2013-01-01 00:10:00,12.7,9.0,30.02,SW,223,4.0,4.0,86,0.00,,,0.00,0,weatherlink.com 1.10,2013-01-01 07:10:00,
2013-01-01 00:25:00,12.6,9.0,30.03,SW,215,0.0,1.0,85,0.00,,,0.00,0,weatherlink.com 1.10,2013-01-01 07:25:00,
2013-01-01 00:41:00,12.5,9.0,30.03,SW,219,0.0,1.0,85,0.00,,,0.00,0,weatherlink.com 1.10,2013-01-01 07:41:00,
2013-01-01 00:56:00,12.1,9.0,30.04,WNW,290,2.0,2.0,85,0.00,,,0.00,0,weatherlink.com 1.10,2013-01-01 07:56:00,
2013-01-01 01:11:00,11.7,8.0,30.04,WSW,256,0.0,2.0,85,0.00,,,0.00,0,weatherlink.com 1.10,2013-01-01 08:11:00,
2013-01-01 01:26:00,11.5,8.0,30.05,WSW,246,0.0,3.0,85,0.00,,,0.00,0,weatherlink.com 1.10,2013-01-01 08:26:00,
2013-01-01 01:41:00,11.3,8.0,30.05,WSW,237,0.0,1.0,85,0.00,,,0.00,0,weatherlink.com 1.10,2013-01-01 08:41:00,
2013-01-01 01:56:00,11.2,8.0,30.06,WNW,286,0.0,3.0,85,0.00,,,0.00,0,weatherlink.com 1.10,2013-01-01 08:56:00,
2013-01-01 02:11:00,11.0,7.0,30.07,SSW,212,0.0,3.0,85,0.00,,,0.00,0,weatherlink.com 1.10,2013-01-01 09:11:00,
2013-01-01 02:26:00,10.8,7.0,30.08,WSW,242,0.0,3.0,85,0.00,,,0.00,0,weatherlink.com 1.10,2013-01-01 09:26:00,
2013-01-01 02:41:00,10.7,7.0,30.08,SW,234,0.0,2.0,84,0.00,,,0.00,0,weatherlink.com 1.10,2013-01-01 09:41:00,
2013-01-01 02:56:00,10.4,7.0,30.08,WSW,252,0.0,2.0,84,0.00,,,0.00,0,weatherlink.com 1.10,2013-01-01 09:56:00,
2013-01-01 03:11:00,10.1,6.0,30.09,WSW,258,0.0,2.0,84,0.00,,,0.00,0,weatherlink.com 1.10,2013-01-01 10:11:00,
2013-01-01 03:26:00,10.0,7.0,30.09,West,261,0.0,3.0,86,0.00,,,0.00,0,weatherlink.com 1.10,2013-01-01 10:26:00,
2013-01-01 03:41:00,9.9,7.0,30.09,WSW,239,0.0,1.0,86,0.00,,,0.00,0,weatherlink.com 1.10,2013-01-01 10:41:00,
2013-01-01 03:56:00,9.8,6.0,30.09,NW,317,0.0,1.0,85,0.00,,,0.00,0,weatherlink.com 1.10,2013-01-01 10:56:00,
2013-01-01 04:11:00,9.6,6.0,30.09,WSW,249,0.0,2.0,86,0.00,,,0.00,0,weatherlink.com 1.10,2013-01-01 11:11:00,
2013-01-01 04:26:00,9.5,6.0,30.10,WNW,286,1.0,2.0,86,0.00,,,0.00,0,weatherlink.com 1.10,2013-01-01 11:26:00,
2013-01-01 04:41:00,9.4,6.0,30.11,West,269,0.0,4.0,87,0.00,,,0.00,0,weatherlink.com 1.10,2013-01-01 11:41:00,
2013-01-01 04:56:00,9.3,6.0,30.12,West,275,0.0,2.0,86,0.00,,,0.00,0,weatherlink.com 1.10,2013-01-01 11:56:00,
2013-01-01 05:11:00,9.2,6.0,30.12,WSW,243,0.0,2.0,86,0.00,,,0.00,0,weatherlink.com 1.10,2013-01-01 12:11:00,
2013-01-01 05:26:00,8.9,6.0,30.12,WSW,252,0.0,3.0,86,0.00,,,0.00,0,weatherlink.com 1.10,2013-01-01 12:26:00,
2013-01-01 05:41:00,8.7,5.0,30.13,WSW,250,1.0,4.0,86,0.00,,,0.00,0,weatherlink.com 1.10,2013-01-01 12:41:00,
2013-01-01 05:56:00,8.6,5.0,30.14,WSW,251,0.0,3.0,86,0.00,,,0.00,0,weatherlink.com 1.10,2013-01-01 12:56:00,
2013-01-01 06:11:00,8.5,5.0,30.15,SSE,159,1.0,2.0,86,0.00,,,0.00,0,weatherlink.com 1.10,2013-01-01 13:11:00,
2013-01-01 06:26:00,8.6,5.0,30.16,WSW,258,0.0,3.0,86,0.00,,,0.00,0,weatherlink.com 1.10,2013-01-01 13:26:00,
2013-01-01 06:41:00,8.8,6.0,30.17,West,271,0.0,2.0,87,0.00,,,0.00,0,weatherlink.com 1.10,2013-01-01 13:41:00,
2013-01-01 06:56:00,8.9,6.0,30.17,West,268,0.0,3.0,86,0.00,,,0.00,0,weatherlink.com 1.10,2013-01-01 13:56:00,
2013-01-01 07:11:00,9.0,6.0,30.18,SSW,202,0.0,2.0,86,0.00,,,0.00,0,weatherlink.com 1.10,2013-01-01 14:11:00,
2013-01-01 07:26:00,9.1,6.0,30.18,WSW,250,0.0,2.0,85,0.00,,,0.00,0,weatherlink.com 1.10,2013-01-01 14:26:00,
2013-01-01 07:41:00,9.1,6.0,30.19,West,259,2.0,3.0,85,0.00,,,0.00,0,weatherlink.com 1.10,2013-01-01 14:41:00,
2013-01-01 07:56:00,9.1,6.0,30.20,WSW,247,1.0,3.0,85,0.00,,,0.00,0,weatherlink.com 1.10,2013-01-01 14:56:00,
2013-01-01 08:12:00,9.2,6.0,30.21,WNW,288,1.0,3.0,85,0.00,,,0.00,5,weatherlink.com 1.10,2013-01-01 15:12:00,
2013-01-01 08:27:00,9.2,5.0,30.21,SW,236,0.0,3.0,84,0.00,,,0.00,7,weatherlink.com 1.10,2013-01-01 15:27:00,
2013-01-01 08:42:00,9.3,5.0,30.21,WSW,254,2.0,2.0,84,0.00,,,0.00,11,weatherlink.com 1.10,2013-01-01 15:42:00,
2013-01-01 08:57:00,9.4,6.0,30.22,West,271,1.0,2.0,84,0.00,,,0.00,9,weatherlink.com 1.10,2013-01-01 15:57:00,
2013-01-01 09:12:00,9.3,5.0,30.23,WSW,254,0.0,1.0,84,0.00,,,0.00,11,weatherlink.com 1.10,2013-01-01 16:12:00,
2013-01-01 09:27:00,9.6,6.0,30.24,WNW,292,0.0,1.0,85,0.00,,,0.00,12,weatherlink.com 1.10,2013-01-01 16:27:00,
2013-01-01 09:42:00,9.9,6.0,30.24,WNW,292,0.0,0.0,85,0.00,,,0.00,18,weatherlink.com 1.10,2013-01-01 16:42:00,
2013-01-01 09:57:00,10.4,7.0,30.25,West,275,0.0,2.0,85,0.00,,,0.00,18,weatherlink.com 1.10,2013-01-01 16:57:00,
2013-01-01 10:12:00,11.0,7.0,30.25,West,275,0.0,0.0,85,0.00,,,0.00,23,weatherlink.com 1.10,2013-01-01 17:12:00,
2013-01-01 10:27:00,12.2,9.0,30.25,West,278,0.0,2.0,85,0.00,,,0.00,16,weatherlink.com 1.10,2013-01-01 17:27:00,
2013-01-01 10:42:00,12.9,9.0,30.25,West,278,0.0,1.0,83,0.00,,,0.00,23,weatherlink.com 1.10,2013-01-01 17:42:00,
2013-01-01 10:57:00,14.8,10.0,30.25,North,360,1.0,6.0,80,0.00,,,0.00,21,weatherlink.com 1.10,2013-01-01 17:57:00,
2013-01-01 11:12:00,15.3,10.0,30.25,North,360,2.0,5.0,78,0.00,,,0.00,44,weatherlink.com 1.10,2013-01-01 18:12:00,
2013-01-01 11:27:00,15.6,10.0,30.25,North,360,2.0,5.0,78,0.00,,,0.00,46,weatherlink.com 1.10,2013-01-01 18:27:00,
2013-01-01 11:42:00,16.1,10.0,30.25,North,360,2.0,5.0,77,0.00,,,0.00,49,weatherlink.com 1.10,2013-01-01 18:42:00,
2013-01-01 11:57:00,15.8,10.0,30.24,North,360,1.0,6.0,76,0.00,,,0.00,53,weatherlink.com 1.10,2013-01-01 18:57:00,
2013-01-01 12:12:00,16.8,10.0,30.23,North,360,1.0,6.0,74,0.00,,,0.00,62,weatherlink.com 1.10,2013-01-01 19:12:00,
2013-01-01 12:27:00,17.0,10.0,30.23,North,360,1.0,4.0,74,0.00,,,0.00,65,weatherlink.com 1.10,2013-01-01 19:27:00,
2013-01-01 12:42:00,15.3,9.0,30.23,West,269,0.0,5.0,76,0.00,,,0.00,21,weatherlink.com 1.10,2013-01-01 19:42:00,
2013-01-01 12:57:00,14.7,9.0,30.23,WSW,257,0.0,3.0,78,0.00,,,0.00,19,weatherlink.com 1.10,2013-01-01 19:57:00,
2013-01-01 13:12:00,14.6,9.0,30.22,West,269,2.0,4.0,78,0.00,,,0.00,25,weatherlink.com 1.10,2013-01-01 20:12:00,
2013-01-01 13:27:00,14.6,10.0,30.22,WSW,249,0.0,4.0,80,0.00,,,0.00,14,weatherlink.com 1.10,2013-01-01 20:27:00,
2013-01-01 13:42:00,15.0,10.0,30.21,West,278,0.0,2.0,81,0.00,,,0.00,37,weatherlink.com 1.10,2013-01-01 20:42:00,
2013-01-01 13:57:00,16.0,10.0,30.21,WSW,256,1.0,3.0,78,0.00,,,0.00,35,weatherlink.com 1.10,2013-01-01 20:57:00,
2013-01-01 14:12:00,16.6,11.0,30.21,WSW,251,1.0,4.0,77,0.00,,,0.00,33,weatherlink.com 1.10,2013-01-01 21:12:00,
2013-01-01 14:27:00,16.5,10.0,30.22,SSW,201,2.0,5.0,75,0.00,,,0.00,18,weatherlink.com 1.10,2013-01-01 21:27:00,
2013-01-01 14:42:00,16.7,12.0,30.22,WSW,238,2.0,4.0,80,0.00,,,0.00,49,weatherlink.com 1.10,2013-01-01 21:42:00,
2013-01-01 14:57:00,16.7,10.0,30.22,WNW,286,1.0,6.0,76,0.00,,,0.00,30,weatherlink.com 1.10,2013-01-01 21:57:00,
2013-01-01 15:12:00,16.7,11.0,30.22,WSW,240,1.0,4.0,77,0.00,,,0.00,28,weatherlink.com 1.10,2013-01-01 22:12:00,
2013-01-01 15:27:00,16.1,10.0,30.23,West,261,1.0,5.0,75,0.00,,,0.00,26,weatherlink.com 1.10,2013-01-01 22:27:00,
2013-01-01 15:42:00,15.6,9.0,30.25,West,260,0.0,5.0,75,0.00,,,0.00,25,weatherlink.com 1.10,2013-01-01 22:42:00,
2013-01-01 15:57:00,15.2,9.0,30.25,West,259,1.0,3.0,76,0.00,,,0.00,7,weatherlink.com 1.10,2013-01-01 22:57:00,
2013-01-01 16:12:00,14.4,8.0,30.26,WSW,242,0.0,2.0,77,0.00,,,0.00,5,weatherlink.com 1.10,2013-01-01 23:12:00,
2013-01-01 16:27:00,13.4,8.0,30.26,West,281,0.0,1.0,78,0.00,,,0.00,0,weatherlink.com 1.10,2013-01-01 23:27:00,
2013-01-01 16:42:00,12.3,8.0,30.27,South,184,0.0,1.0,81,0.00,,,0.00,5,weatherlink.com 1.10,2013-01-01 23:42:00,
2013-01-01 16:57:00,11.8,7.0,30.27,South,184,0.0,0.0,81,0.00,,,0.00,0,weatherlink.com 1.10,2013-01-01 23:57:00,
2013-01-01 17:12:00,10.9,6.0,30.29,South,184,0.0,0.0,82,0.00,,,0.00,0,weatherlink.com 1.10,2013-01-02 00:12:00,
2013-01-01 17:27:00,10.0,6.0,30.30,South,184,0.0,0.0,84,0.00,,,0.00,0,weatherlink.com 1.10,2013-01-02 00:27:00,
2013-01-01 17:42:00,9.8,6.0,30.30,South,184,0.0,0.0,85,0.00,,,0.00,0,weatherlink.com 1.10,2013-01-02 00:42:00,
2013-01-01 17:57:00,9.8,7.0,30.30,South,184,0.0,0.0,88,0.00,,,0.00,0,weatherlink.com 1.10,2013-01-02 00:57:00,
2013-01-01 18:12:00,10.0,7.0,30.31,South,184,0.0,0.0,89,0.00,,,0.00,0,weatherlink.com 1.10,2013-01-02 01:12:00,
2013-01-01 18:27:00,10.3,8.0,30.31,South,184,0.0,0.0,89,0.00,,,0.00,0,weatherlink.com 1.10,2013-01-02 01:27:00,
2013-01-01 18:42:00,10.5,8.0,30.32,South,184,0.0,0.0,88,0.00,,,0.00,0,weatherlink.com 1.10,2013-01-02 01:42:00,
2013-01-01 18:57:00,10.4,7.0,30.31,SSW,194,0.0,1.0,87,0.00,,,0.00,0,weatherlink.com 1.10,2013-01-02 01:57:00,
2013-01-01 19:12:00,9.8,6.0,30.31,South,176,0.0,0.0,84,0.00,,,0.00,0,weatherlink.com 1.10,2013-01-02 02:12:00,
2013-01-01 19:27:00,9.2,6.0,30.32,SE,130,0.0,2.0,85,0.00,,,0.00,0,weatherlink.com 1.10,2013-01-02 02:27:00,
2013-01-01 19:43:00,8.7,5.0,30.32,SE,128,0.0,0.0,85,0.00,,,0.00,0,weatherlink.com 1.10,2013-01-02 02:43:00,
2013-01-01 19:58:00,8.1,5.0,30.32,SE,128,0.0,0.0,85,0.00,,,0.00,0,weatherlink.com 1.10,2013-01-02 02:58:00,
2013-01-01 20:13:00,7.7,5.0,30.33,West,277,0.0,3.0,87,0.00,,,0.00,0,weatherlink.com 1.10,2013-01-02 03:13:00,
2013-01-01 20:28:00,7.9,5.0,30.34,East,98,0.0,2.0,88,0.00,,,0.00,0,weatherlink.com 1.10,2013-01-02 03:28:00,
2013-01-01 20:43:00,7.8,5.0,30.34,ESE,104,0.0,0.0,86,0.00,,,0.00,0,weatherlink.com 1.10,2013-01-02 03:43:00,
2013-01-01 20:58:00,7.3,4.0,30.33,East,93,0.0,1.0,84,0.00,,,0.00,0,weatherlink.com 1.10,2013-01-02 03:58:00,
2013-01-01 21:13:00,6.8,3.0,30.34,East,97,0.0,1.0,85,0.00,,,0.00,0,weatherlink.com 1.10,2013-01-02 04:13:00,
2013-01-01 21:28:00,6.5,3.0,30.36,SSW,213,0.0,2.0,86,0.00,,,0.00,0,weatherlink.com 1.10,2013-01-02 04:28:00,
2013-01-01 21:43:00,6.3,3.0,30.37,South,190,0.0,1.0,86,0.00,,,0.00,0,weatherlink.com 1.10,2013-01-02 04:43:00,
2013-01-01 21:58:00,6.3,4.0,30.38,NE,40,0.0,2.0,88,0.00,,,0.00,0,weatherlink.com 1.10,2013-01-02 04:58:00,
2013-01-01 22:13:00,6.4,3.0,30.38,NE,40,0.0,0.0,87,0.00,,,0.00,0,weatherlink.com 1.10,2013-01-02 05:13:00,
2013-01-01 22:48:00,6.1,2.0,30.39,NE,40,0.0,0.0,84,0.00,,,0.00,0,weatherlink.com 1.10,2013-01-02 05:48:00,
2013-01-01 22:58:00,5.9,2.0,30.40,NE,40,0.0,0.0,85,0.00,,,0.00,0,weatherlink.com 1.10,2013-01-02 05:58:00,
2013-01-01 23:13:00,5.6,2.0,30.40,NE,40,0.0,0.0,85,0.00,,,0.00,0,weatherlink.com 1.10,2013-01-02 06:13:00,
2013-01-01 23:28:00,5.4,2.0,30.41,NE,40,0.0,0.0,85,0.00,,,0.00,0,weatherlink.com 1.10,2013-01-02 06:28:00,
2013-01-01 23:43:00,5.1,2.0,30.41,NE,40,0.0,0.0,85,0.00,,,0.00,0,weatherlink.com 1.10,2013-01-02 06:43:00,
2013-01-01 23:58:00,4.8,1.0,30.42,NE,40,0.0,0.0,85,0.00,,,0.00,0,weatherlink.com 1.10,2013-01-02 06:58:00,